Location: Buchberg
(46.9333°N, 15.8500°E)
Time: 03:24:49
(UTC+00:00)

deb Kosmos-1763 - Pass Details

Date: 14 July 2020
Orbit: 464 x 480 km, 74.0° (Epoch: 11 August)

Event Time Altitude Azimuth Distance (km) Brightness Sun altitude
Exits shadow 01:49:59 19° 212° (SSW) 1,178 5.4 -11.7°
Maximum altitude 01:52:26 70° 293° (WNW) 503 4.0 -11.5°
Drops below altitude 10° 01:56:02 10° 18° (NNE) 1,636 7.9 -11.1°
Sets 01:58:10 0° 21° (NNE) 2,521 9.2 -10.8°
